• MPC Preparation (Info)

  • MPEC 2001-H19 : 2000 XK47

    The following Minor Planet Electronic Circular may be linked-to from your own Web pages, but must not otherwise be redistributed electronically.

    A form allowing access to any MPEC is at the bottom of this page.


    Read MPEC 2001-H18 Read MPEC 2001-H20


    M.P.E.C. 2001-H19                                Issued 2001 Apr. 19, 18:45 UT
    
         The Minor Planet Electronic Circulars contain information on unusual
             minor planets and routine data on comets.  They are published
       on behalf of Commission 20 of the International Astronomical Union by the
              Minor Planet Center, Smithsonian Astrophysical Observatory,
                              Cambridge, MA 02138, U.S.A.
    
                 Prepared using the Tamkin Foundation Computer Network
    
                                  MPC@CFA.HARVARD.EDU
              URL http://cfa-www.harvard.edu/iau/mpc.html  ISSN 1523-6714
    
                                       2000 XK47
    
                               Revision to MPEC 2000-Y09
    
    Observations:
         K00X47K 2 1974 07 12.54276 19 22 27.22 -33 12 33.2                      260
         K00X47K 2 1974 07 12.58443 19 22 20.07 -33 11 37.5                      260
         K00X47K  C1999 01 09.12744 01 27 40.88 +31 27 34.9          19.1        704
         K00X47K  C1999 01 09.13789 01 27 41.19 +31 27 17.2          19.2        704
         K00X47K  C1999 01 09.14834 01 27 41.37 +31 27 03.4          19.2        704
         K00X47K  C1999 01 09.15917 01 27 41.87 +31 26 45.3          18.9        704
    
    Observer details:
    260 Siding Spring-DSS.  Trail located and measured by ANEOPP (M. Read,
        A. Boattini, G. Forti, G. D'Abramo).  1.2-m Schmidt.
    704 Lincoln Laboratory ETS, New Mexico.  Observers M. Blythe, F. Shelly,
        M. Bezpalko, R. Huber, L. Manguso, S. Adams.  Measurers J. Stuart,
        R. Sayer, J. B. Evans, H. Viggh.  1.0-m f/2.15 reflector + CCD.
    
    First and last observations above in comparison with prediction:
    Residuals in seconds of arc (or two decimals in degrees), reference and Delta-T
    740712 260 6.97+ 2.89+    990109 704 0.10+ 0.13+    MPO  9892   -4.7 day
    
    Orbital elements:
    2000 XK47
    Epoch 2001 Apr. 1.0 TT = JDT 2452000.5                  Williams
    M  18.82359              (2000.0)            P               Q
    n   0.51276691     Peri.  230.94131     -0.97786638     -0.07677940
    a   1.5459285      Node   303.81755     +0.16720329     -0.84597389
    e   0.4714645      Incl.   13.54852     -0.12577922     -0.52766761
    P   1.92           H   18.2           G   0.15           U   2
    Residuals in seconds of arc
    740712 260  0.6-  0.1+    001217 611  0.0   0.2+    001223 610  0.2-  0.2-
    740712 260  0.4+  0.3+    001217 611  0.2+  0.2+    001223 610  0.3-  0.3-
    990109 704  0.2-  0.2+    001217 611  0.2+  0.0     001223 610  0.3-  0.3-
    990109 704  0.5+  0.9-    001218 165  0.1-  0.0     001223 610  0.3-  0.2-
    990109 704  0.4-  1.9+    001218 165  0.2-  0.1+    001223 610  0.3-  0.2-
    990109 704 (2.5+  1.1+)   001218 165  0.3+  0.2-    001226 349  0.9+  0.6-
    001215 704  0.1+  0.0     001218 165  0.4+  0.1+    001226 349  0.5+  0.7-
    001215 704  0.1+  0.1+    001218 165  0.3+  0.2+    001226 349  0.2+  0.0
    001215 704  0.6-  0.3-    001219 704  0.1+  0.2+    001226 349  0.6+  0.4-
    001215 704  0.0   0.4-    001219 704  0.3+  0.0     001227 670  0.1+  0.0
    001215 704  0.6-  0.7-    001219 704  0.1+  0.1+    001227 670  0.1+  0.1-
    001216 327  0.1+  0.1+    001219 704  0.2+  0.0     001227 670  0.4+  0.2-
    001216 327  0.0   0.0     001219 704  0.1+  0.1-    001228 151  0.1+  0.2-
    001216 327  0.4-  0.2+    001219 327  0.3-  0.1-    001228 151  0.1-  0.1+
    001216 327  0.4-  0.1-    001219 327  0.3-  0.1-    001228 151  0.0   0.1-
    001216 046  0.6-  0.4+    001219 327 (2.3+  0.2-)   001228 151  0.4+  0.1-
    001216 046  0.0   0.6+    001219 610  0.0   0.1+    001228 151  0.2+  0.1-
    001216 046  0.1-  0.4+    001219 610  0.1-  0.1+    001228 151  0.2+  0.3-
    001216 046  0.2+  0.3+    001219 610  0.1-  0.1+    001229 360  0.0   0.1-
    001216 046  0.0   0.0     001219 610  0.0   0.1+    001229 360  0.1+  0.1-
    001216 046  0.0   0.5+    001219 610  0.1-  0.1+    001229 360  0.0   0.1-
    001216 946  0.7-  0.8+    001220 557  0.0   0.1+    010102 355  0.0   0.1+
    001216 946  0.1-  0.0     001220 557  0.0   0.1+    010102 355  0.1-  0.4-
    001216 946  0.0   0.8-    001220 557  0.1-  0.1+    010102 355  0.2-  0.0
    001217 946  0.3-  0.4-    001220 557  0.1+  0.0     010102 355  0.1-  0.3-
    001217 165  0.4-  0.4+    001220 557  0.1-  0.1+    010102 113  0.3+  0.0
    001217 165  0.1+  0.1-    001220 557  0.1-  0.0     010102 113  0.3+  0.0
    001217 854  0.9-  0.5-    001220 557  0.4+  0.0     010102 113  0.5+  0.0
    001217 854  1.2-  1.1-    001221 113  0.1+  0.1+    010102 113  0.2+  0.0
    001217 854  0.6-  0.4-    001221 113  0.1+  0.0     010102 113  0.6+  0.3-
    001217 704  0.1+  0.3+    001221 113  0.2+  0.1+    010102 113  0.3+  0.3-
    001217 704  0.1+  0.1-    001221 113  0.0   0.0     010102 113  0.3+  0.2-
    001217 704  0.5+  0.2+    001221 113  0.1+  0.2+    010107 704  0.2-  0.4+
    001217 704  0.1-  0.3-    001222 113  0.5-  0.3-    010107 704  0.4-  0.7+
    001217 704  0.1+  0.1+    001222 113  0.7-  0.2-    010107 704  0.3-  0.7+
    001217 704  0.1-  0.2-    001222 113  0.1-  0.0     010107 704  0.3-  1.0+
    001217 704  0.6+  0.1-    001222 113  0.5+  0.4+    010107 704  0.2-  1.1+
    001217 704  0.2+  0.2+    001223 113  0.2-  0.0     010111 349  0.4-  1.1-
    001217 704  0.3+  0.1-    001223 113  0.1-  0.3+    010111 349  0.0   1.3-
    001217 670  0.0   0.3+    001223 113  0.7-  0.5+    010111 349  0.5+  0.5-
    001217 704  0.2+  0.1-    001223 113  0.2-  0.4+    010111 349  0.6-  0.3+
    001217 670  0.4+  0.2-    001223 151  0.4+  0.3-    010112 118  0.5+  0.6+
    001217 670  0.7-  1.6+    001223 151  0.0   0.5-    010112 118  0.4+  0.3+
    001217 557  0.0   0.2+    001223 151  0.3+  0.4-    010112 118  0.4+  0.6+
    001217 557  0.1+  0.1+    001223 151  0.1-  0.3-    010413 413  0.2+  0.1-
    001217 557  0.3+  0.3+    001223 151  0.1-  0.5-    010413 413  0.6-  0.5-
    001217 587  0.1+  0.1+    001223 151  0.2-  0.6-    010413 413  0.0   0.1+
    001217 587  0.2+  0.4+    001223 587  0.0   0.5-
    001217 587  0.2+  0.2+    001223 587  0.2+  0.6-
    
    Ephemeris:
    2000 XK47                a,e,i = 1.55, 0.47, 14                  q = 0.8171
    Date    TT    R. A. (2000) Decl.     Delta      r     Elong.  Phase     V
    2001 04 11    21 23.29   -33 40.5    0.704    1.005    69.6    69.3    19.9
    2001 04 21    21 40.58   -30 55.5    0.734    1.074    74.5    64.4    20.0
    2001 05 01    21 54.36   -28 22.8    0.748    1.147    80.1    59.9    20.0
    2001 05 11    22 04.37   -26 05.7    0.749    1.221    86.6    55.7    20.0
    2001 05 21    22 10.23   -24 06.5    0.739    1.294    94.0    51.3    20.0
    2001 05 31    22 11.30   -22 27.1    0.721    1.367   102.6    46.4    19.9
    2001 06 10    22 06.92   -21 07.6    0.699    1.437   112.6    40.7    19.8
    2001 06 20    21 56.47   -20 06.9    0.678    1.505   124.1    34.0    19.7
    2001 06 30    21 39.80   -19 21.3    0.665    1.571   137.2    26.1    19.5
    2001 07 10    21 18.01   -18 44.0    0.666    1.634   151.5    17.3    19.3
    2001 07 20    20 53.55   -18 08.6    0.689    1.693   166.6     8.0    19.1
    2001 07 30    20 29.87   -17 31.3    0.735    1.750   178.0     1.2    18.9
    2001 08 09    20 10.06   -16 53.1    0.807    1.804   164.2     8.8    19.6
    2001 08 19    19 55.70   -16 16.6    0.902    1.855   151.4    15.2    20.2
    2001 08 29    19 47.09   -15 43.5    1.016    1.903   139.8    20.0    20.6
    2001 09 08    19 43.63   -15 13.5    1.145    1.947   129.4    23.6    21.1
    2001 09 18    19 44.45   -14 45.1    1.286    1.989   120.0    25.9    21.4
    2001 09 28    19 48.72   -14 16.3    1.435    2.028   111.4    27.4    21.7
    2001 10 08    19 55.71   -13 45.4    1.589    2.064   103.4    28.1    22.0
    
    Gareth V. Williams           (C) Copyright 2001 MPC           M.P.E.C. 2001-H19
    

    Read MPEC 2001-H18 Read MPEC 2001-H20


    MPEC number:

    Enter an MPEC number in one of the following forms:

    • 1997-B01 (the full form)
    • J97B01 (the packed version of the full form)
    • B01 (the abbreviated form)